Regional Weather Roundup
Issued by NWS

Home | Current Version | Previous Version | Text Only | Print | Product List | Glossary Off
Versions: 1 2 3 4 5 6 7 8 9 10 11 12 13 14 15 16 17 18 19 20 21 22 23 24 25 26 27 28 29 30 31 32 33 34 35 36 37 38 39 40 41 42 43 44 45 46 47 48 49 50

000
ASUS44 KMEG 281110
RWRTN
TENNESSEE HOURLY STATE WEATHER ROUNDUP
NATIONAL WEATHER SERVICE MEMPHIS TN
500 AM CST SAT FEB 28 2015

TNZ002-004-019-021-049-052-054-088>092-281200-
WEST TENNESSEE

CITY           SKY/WX    TMP DP  RH WIND       PRES   REMARKS
MEMPHIS INTL   CLOUDY    30  13  49 NE10      30.53R WCI  21
NWS MEMPHIS      N/A     28 N/A N/A MISG        N/A
JACKSON        CLOUDY    28  12  51 NE7       30.56R WCI  21
DYERSBURG      MOCLDY    25   5  42 NE10      30.60R WCI  15
UNION CITY     CLOUDY    21  14  73 NE10      30.58R WCI  10
PARIS          CLOUDY    21  10  63 NE7       30.57R WCI  13
LEXINGTON      CLOUDY    27   9  46 NE6       30.53S WCI  20
SAVANNAH       CLOUDY    27   9  46 NE5       30.53R WCI  21
$$

TNZ008-025-027-028-033-062-065-066-281200-
NORTH MIDDLE TENNESSEE

CITY           SKY/WX    TMP DP  RH WIND       PRES   REMARKS
NASHVILLE      CLOUDY    25  10  53 E8        30.57R WCI  16
CLARKSVILLE    CLOUDY    23  12  62 NE9       30.59R WCI  13
SMYRNA         MOCLDY    25  11  55 NE6       30.59R WCI  18
COOKEVILLE     PTCLDY    23  12  63 NE5       30.53S WCI  17
CROSSVILLE     CLOUDY    21  12  68 NE6       30.49R WCI  13
$$

TNZ061-075-076-078-094-096-097-281200-
SOUTH MIDDLE TENNESSEE

CITY           SKY/WX    TMP DP  RH WIND       PRES   REMARKS
FAYETTEVILLE   CLEAR     23  12  63 NE8         N/A  WCI  14
TULLAHOMA      CLOUDY    25  12  58 NE5       30.51R WCI  19
WINCHESTER     CLOUDY    25  18  74 NE6       30.51R WCI  18
MCMINNVILLE    CLOUDY    25  14  63 NE8       30.53R WCI  16
COLUMBIA         N/A     25  12  58 NE7       30.52S WCI  17
SHELBYVILLE    CLOUDY    27  16  63 N5        30.55R WCI  21
$$

TNZ017-018-042-046-047-281200-
NORTHEAST TENNESSEE

CITY           SKY/WX    TMP DP  RH WIND       PRES   REMARKS
TRI CITIES     PTCLDY    17  11  77 CALM      30.55S
ELIZABETHTON   SUNNY     16  12  86 CALM      30.54S
$$

TNZ012-013-036-069-073-074-281200-
CENTRAL EAST TENNESSEE

CITY           SKY/WX    TMP DP  RH WIND       PRES   REMARKS
KNOXVILLE      CLOUDY    25  15  66 NE7       30.55R WCI  17
OAK RIDGE      PTCLDY    26  12  55 NE5       30.57R WCI  20
GATLINBURG     CLOUDY    19  16  86 CALM      30.55R
MORRISTOWN     MOSUNNY   21  12  68 NE8       30.54R WCI  12
$$

TNZ083-085-099-281200-
SOUTHEAST TENNESSEE

CITY           SKY/WX    TMP DP  RH WIND       PRES   REMARKS
CHATTANOOGA    MOCLDY    29  13  51 NE8       30.55R WCI  21
$$

SKY/WX REPORTED AS FAIR MEANS FEW OR NO CLOUDS BELOW
12 THOUSAND FEET.




USA.gov is the U.S. government's official web portal to all federal, state and local government web resources and services.